Hourly Weather Roundup
Issued by NWS Central Illinois

Home | Current Version | Previous Version | Text Only | Print | Product List | Glossary On
Versions: 1 2 3 4 5 6 7 8 9 10 11 12 13 14 15 16 17 18 19 20 21 22 23 24 25 26 27 28 29 30 31 32 33 34 35 36 37 38 39 40 41 42 43 44 45 46 47 48 49 50
920
NZUS43 KILX 161410
HWRILX

Area Weather Roundup
National Weather Service Lincoln IL
800 AM CST SAT DEC 16 2017

NOTE:  "FAIR" indicates few or no clouds below 12,000 feet, with
       no sigificant weather and/or obstructions to visibility.


CITY           SKY/WX    TMP DP  RH WIND       PRES   REMARKS
Bloomington    CLEAR     31  25  78 S15       29.90S WCI  20
Champaign      CLEAR     32  26  78 S13       29.95R WCI  22
Danville       CLEAR     32  25  75 S16       29.92S WCI  22
Decatur        CLEAR     34  25  69 SW17G25   29.94S WCI  23
Effingham      CLEAR     35  28  77 S14       30.03S WCI  26
Flora          CLEAR     34  29  83 S13       30.06R WCI  25
Galesburg      CLEAR     33  27  78 S9        29.85S WCI  25
Jacksonville   CLEAR     35  24  63 S14       29.91S WCI  26
Lacon          PTCLDY    33  25  72 SW10      29.86S WCI  25
Lawrenceville  CLEAR     33  28  81 S10       30.08R WCI  25
Litchfield     CLEAR     31  26  81 S12       29.98S WCI  21
$$


CITY           SKY/WX    TMP DP  RH WIND       PRES   REMARKS
Lincoln        CLEAR     33  26  78 S9        29.92R WCI  25
Macomb         CLEAR     35  26  68 SW10      29.88R WCI  27
Mattoon        CLEAR     32  27  81 S15       29.97S WCI  22
Mt Carmel AP   CLEAR     33  28  82 S14       30.07S WCI  23
Olney-Noble AP CLEAR     33  29  84 S9G16     30.06R WCI  26
Paris AP       CLEAR     34  28  77 SW20      29.99S WCI  22
Peoria         CLEAR     30  25  81 S8        29.89R WCI  22
Pontiac        CLEAR     32  26  78 S6        29.89S WCI  26
Rantoul        CLEAR     36  28  72 SW13G22   29.92S WCI  27
Robinson       CLEAR     32  28  83 S10       30.06S WCI  24
Springfield    CLEAR     35  26  69 S16       29.92S WCI  25
Taylorville    CLEAR     34  25  70 S17       29.95S WCI  23
$$

...REGIONAL REPORTS...


CITY           SKY/WX    TMP DP  RH WIND       PRES   REMARKS
Chicago O`Hare CLOUDY    34  24  67 S9        29.85S WCI  27
Kankakee       CLEAR     31  23  72 SW6       29.91S WCI  25
Moline         CLEAR     33  24  69 SW5       29.82R WCI  29
Mount Sterling CLEAR     38  24  58 SW15G21   29.88S WCI  29
Mount Vernon   CLEAR     32  31  96 SW12      30.08R WCI  23
Pittsfield     CLEAR     37  26  65 SW8       29.92S WCI  30
Quincy         CLEAR     35  25  66 SW16      29.88R WCI  25
Rockford       PTCLDY    28  23  81 S6        29.84R WCI  22
$$


CITY           SKY/WX    TMP DP  RH WIND       PRES   REMARKS
Burlington     CLEAR     34  26  72 SW12      29.83R WCI  25
Cedar Rapids   CLOUDY    27  22  81 S6        29.78R WCI  20
Des Moines     PTCLDY    34  24  67 SW9       29.78S WCI  27
Kirksville     CLEAR     36  28  73 SW14      29.86R WCI  27
Ottumwa        CLEAR     37  24  59 SW10      29.80R WCI  30
St Louis       PTCLDY    39  26  59 SW16      29.98S WCI  30
$$


CITY           SKY/WX    TMP DP  RH WIND       PRES   REMARKS
Terre Haute    CLEAR     34  26  72 S14G23    30.01S WCI  25
Evansville     CLEAR     34  29  82 S14       30.13R WCI  25
Indianapolis   CLEAR     33  26  75 SW15      30.01R WCI  23
Lafayette      CLEAR     33  26  75 SW6       29.95F WCI  28
Madison        MOCLDY    31  24  75 E3        29.81S
Milwaukee      CLOUDY    35  29  78 CALM      29.86R
$$






USA.gov is the U.S. government's official web portal to all federal, state and local government web resources and services.